Estación de Los Colihues

Ultimos registro cada 15 minutos 47
Estación Fecha / Hora Temperatura Humedad Lluvia Velocidad Dirección Radiación Presion
47 Los Colihues 05-05-2026 11:30 15,9 90,3 0 0 3 234,4 1003,4
46 Los Colihues 05-05-2026 11:15 15,1 92,5 0 0 15 225,6 1003
45 Los Colihues 05-05-2026 11:00 14,3 99,7 0 0 358 204,4 1003
44 Los Colihues 05-05-2026 10:45 14 100 0 0 14 183,1 1003,2
43 Los Colihues 05-05-2026 10:30 13,3 100 0 0 1 229,4 1003
42 Los Colihues 05-05-2026 10:15 13 100 0 0 8 130,6 1003,7
41 Los Colihues 05-05-2026 10:00 12,7 100 0 0 20 120,6 1003,9
40 Los Colihues 05-05-2026 09:45 12,5 100 0 0 24 91,9 1003,9
39 Los Colihues 05-05-2026 09:30 12,1 100 0 0 11 98,1 1003,5
38 Los Colihues 05-05-2026 09:15 11,8 100 0 0 10 60,6 1003,7
37 Los Colihues 05-05-2026 09:00 11,7 100 0 0 10 55,6 1003,9
36 Los Colihues 05-05-2026 08:45 11,4 100 0 0 10 58,1 1004,1
35 Los Colihues 05-05-2026 08:30 11,2 100 0 0 10 28,1 1004,2
34 Los Colihues 05-05-2026 08:15 11,1 100 0 0 11 31,9 1004,6
33 Los Colihues 05-05-2026 08:00 11,1 100 0 0 11 23,1 1004,8
32 Los Colihues 05-05-2026 07:45 11,2 100 0 0 13 6,9 1004,4
31 Los Colihues 05-05-2026 07:30 10,9 100 0 0 79 0,6 1004,7
30 Los Colihues 05-05-2026 07:15 10,6 100 0 0 79 0,6 1004,6
29 Los Colihues 05-05-2026 07:00 10,7 100 0 0 79 0,6 1005,1
28 Los Colihues 05-05-2026 06:45 10,9 100 0 0 79 0,6 1005,3
27 Los Colihues 05-05-2026 06:30 11 100 0 0 79 0,6 1005,4
26 Los Colihues 05-05-2026 06:15 11 100 0 0 79 0,6 1005,3
25 Los Colihues 05-05-2026 06:00 10,9 100 0 0 79 0,6 1005,5
24 Los Colihues 05-05-2026 05:45 10,9 100 0 0 27 0,6 1005
23 Los Colihues 05-05-2026 05:30 10,9 100 0 0 13 0,6 1005,4
22 Los Colihues 05-05-2026 05:15 11 100 0 0 60 0,6 1006,2
21 Los Colihues 05-05-2026 05:00 10,9 100 0 0 39 0,6 1005,5
20 Los Colihues 05-05-2026 04:45 10,9 100 0 0 27 0,6 1005,8
19 Los Colihues 05-05-2026 04:30 10,9 100 0 0 27 0,6 1005,4
18 Los Colihues 05-05-2026 04:15 11 100 0 0 27 0,6 1005,6
17 Los Colihues 05-05-2026 04:00 11 100 0 0 27 0,6 1005,4
16 Los Colihues 05-05-2026 03:45 11,2 100 0 0 24 0,6 1004,9
15 Los Colihues 05-05-2026 03:30 10,5 100 0 0 13 0,6 1004,9
14 Los Colihues 05-05-2026 03:15 10,6 100 0 0 13 0,6 1005,2
13 Los Colihues 05-05-2026 03:00 10,6 100 0 0 13 0,6 1005,4
12 Los Colihues 05-05-2026 02:45 10,6 100 0 0 13 0,6 1005,4
11 Los Colihues 05-05-2026 02:30 10,5 100 0 0 13 0,6 1005,5
10 Los Colihues 05-05-2026 02:15 10,7 100 0 0 13 0,6 1005,9
9 Los Colihues 05-05-2026 02:00 10,5 100 0 0 13 0,6 1005,7
8 Los Colihues 05-05-2026 01:45 10,5 100 0 0 13 0,6 1005,9
7 Los Colihues 05-05-2026 01:30 10,2 100 0 0 13 0,6 1005,9
6 Los Colihues 05-05-2026 01:15 10,2 100 0 0 13 0,6 1005,8
5 Los Colihues 05-05-2026 01:00 10,3 100 0 0 13 0,6 1005,7
4 Los Colihues 05-05-2026 00:45 10,1 100 0 0 13 0,6 1005,8
3 Los Colihues 05-05-2026 00:30 10,2 100 0 0 13 0,6 1006
2 Los Colihues 05-05-2026 00:15 10,2 100 0 0 13 0,6 1006,3
1 Los Colihues 05-05-2026 00:00 10,2 100 0 0 13 0,6 1006,4